Location: Newark
(0.5300°S, 127.4800°E)
Time: 16:24:29
(UTC+00:00)

Vanguard 3 - Pass Details

Date: 20 September 2019
Orbit: 508 x 3262 km, 33.3° (Epoch: 13 October)

Event Time Altitude Azimuth Distance (km) Brightness Sun altitude
Rises 07:31:21 0° 308° (NW) 6,679 12.6 28.1°
Reaches altitude 10° 07:36:23 10° 310° (NW) 5,318 12.2 26.8°
Maximum altitude 07:50:46 78° 34° (NE) 1,717 9.1 23.2°
Drops below altitude 10° 07:58:34 10° 120° (ESE) 3,045 9.7 21.3°
Sets 08:00:42 0° 121° (ESE) 3,750 10.1 20.7°
